Regional Weather Roundup
Issued by NWS

Home | Current Version | Previous Version | Text Only | Print | Product List | Glossary Off
Versions: 1 2 3 4 5 6 7 8 9 10 11 12 13 14 15 16 17 18 19 20 21 22 23 24 25 26 27 28 29 30 31 32 33 34 35 36 37 38 39 40 41 42 43 44 45 46 47 48 49 50

000
ASUS45 KBOU 062010
RWRCO

WEATHER ROUNDUP FOR COLORADO
NATIONAL WEATHER SERVICE DENVER/BOULDER CO
200 PM MDT MON JUL 06 2015

NOTE: "FAIR" INDICATES FEW OR NO CLOUDS BELOW 12000 FEET WITH NO
SIGNIFICANT WEATHER AND/OR OBSTRUCTIONS TO VISIBILITY.

COZ001>005-013-030-031-062100-
...NORTHWEST COLORADO...

CITY           SKY/WX    TMP DP  RH WIND       PRES   REMARKS
CRAIG          MOSUNNY   76  53  44 VRB5      30.23F
HAYDEN         PTSUNNY   72  48  43 CALM      30.25F
MEEKER         MOSUNNY   75  53  46 NE18G26   30.24S
MOUNT WERNER   NOT AVBL
STEAMBOAT SPGS PTSUNNY   67  50  53 CALM      30.28F
WALDEN         PTSUNNY   61  50  67 NW14      30.36S
$$

COZ006>008-011-062100-
...WEST CENTRAL VALLEYS...

CITY           SKY/WX    TMP DP  RH WIND       PRES   REMARKS
GRAND JUNCTION PTSUNNY   84  54  35 SW7       30.10F
MONTROSE       CLOUDY    77  54  44 N9        30.22F
EAGLE          TSTM      57  54  88 N16G28    30.30R
RIFLE          MOSUNNY   75  53  46 E6        30.19F
DELTA          CLOUDY    82  54  38 N12       30.17F
NUCLA          CLOUDY    81  48  32 NW5       30.23F
$$

COZ017>023-064>068-062100-
...SOUTHWEST COLORADO...

CITY           SKY/WX    TMP DP  RH WIND       PRES   REMARKS
DURANGO        MOSUNNY   81  45  28 NW22G29   30.20F
CORTEZ         SUNNY     85  55  35 W17G25    30.15F
PAGOSA SPRINGS PTSUNNY   79  38  23 SW5       30.26F THUNDER
TELLURIDE      CLOUDY    65  42  43 N3        30.43S THUNDER
WOLF CREEK PAS NOT AVBL
$$

COZ009-010-012-014-032>034-037-058>063-062100-
...CENTRAL COLORADO...

CITY           SKY/WX    TMP DP  RH WIND       PRES   REMARKS
ASPEN          CLOUDY    70  48  45 N12       30.32F
BUENA VISTA    PTSUNNY   69  44  39 NW22      30.31S
COPPER MTN     CLOUDY    54  41  62 W13G20    30.62S
BERTHOUD PASS  PTSUNNY   43  34  70 CALM      30.66F HAZE
COTTONWOOD PAS NOT AVBL
GUNNISON       PTSUNNY   73  41  31 W3        30.31F
KREMMLING      PTSUNNY   70  46  43 SW3       30.31F
LEADVILLE      PTSUNNY   61  42  49 VRB6      30.45F
MONARCH PASS   CLOUDY    52  43  71 CALM      30.71F
SALIDA         PTSUNNY   78  49  36 E9        30.34F
SUNLIGHT       CLOUDY    54  48  82 CALM      30.58S
WILKERSON PASS CLOUDY    50  46  87 E7        30.59F
$$

COZ069>075-062100-
...SAN LUIS VALLEY/SANGRE DE CRISTO MOUNTAINS...

CITY           SKY/WX    TMP DP  RH WIND       PRES   REMARKS
ALAMOSA        LGT RAIN  71  53  52 SE9       30.26F
LA VETA PASS   FOG       52  50  93 MISG      30.49F VSB<1/4
SAGUACHE       PTSUNNY   73  46  38 N5        30.29F
$$

COZ035-036-038>040-062100-
...NORTHERN COLORADO FRONT RANGE...

CITY           SKY/WX    TMP DP  RH WIND       PRES   REMARKS
DENVER INTL AP CLOUDY    62  57  83 NE14      30.29F
DMNS CITY PARK   N/A     62  56  80 NE6G21    30.28S
AURORA         CLOUDY    61  61  98 NE13      30.30F
FRONT RANGE AP CLOUDY    59  55  88 N9        30.30F
ERIE MUNI ARPT CLOUDY    64  57  77 E5        30.28S
BOULDER MUN AP CLOUDY    63  59  88 CALM      30.29S
CENTENNIAL     CLOUDY    61  57  87 NE6       30.30F
BROOMFIELD     PTSUNNY   63  57  82 NE8       30.31S
FORT COLLINS   CLOUDY    63  57  82 N8        30.30S
LONGMONT       CLOUDY    65  60  82 N6        30.30F
$$

COZ041-046-047-076>085-087-088-062100-
...PIKES PEAK/PALMER DIVIDE AND SOUTHERN FOOTHILLS...

CITY           SKY/WX    TMP DP  RH WIND       PRES   REMARKS
COLO. SPRINGS  CLOUDY    68  56  65 NE18      30.27S
A. F. ACADEMY  MOSUNNY   66  55  68 NE17      30.28S
ELLICOTT       CLOUDY   N/A N/A N/A NE20G25   30.28R
FALCON         CLOUDY    62  55  76 NE16G22   30.33S
FORT CARSON    RAIN      66  59  80 NE10      30.25S
LIMON          CLOUDY    61  55  81 N14G22    30.28S
MONUMENT HILL  CLOUDY    55  54  94 MISG      30.35S
TRINIDAD       LGT RAIN  65  60  84 E7        30.25S
$$

COZ042>045-048>051-090-091-062100-
...NORTHEAST COLORADO...

CITY           SKY/WX    TMP DP  RH WIND       PRES   REMARKS
GREELEY ARPT   CLOUDY    66  55  68 NE10G17   30.28F
AKRON          CLOUDY    65  54  67 N14       30.26R HAZE
BURLINGTON     CLOUDY    64  57  78 N18G25    30.21R
WRAY           CLOUDY    74  55  50 NE13G20   30.19S
STERLING       CLOUDY    68  55  64 NE9         N/A  HAZE
HOLYOKE        PTSUNNY   75  54  46 N15G22    30.19F HAZE
FORT MORGAN    CLOUDY    65  52  63 NE10      30.27F
$$

COZ086-089-092>099-062100-
...SOUTHEAST COLORADO...

CITY           SKY/WX    TMP DP  RH WIND       PRES   REMARKS
PUEBLO         CLOUDY    79  56  45 E17G26    30.17S
LA JUNTA       CLOUDY    69  61  75 NE13      30.20R
LAMAR          LGT RAIN  69  61  75 NE15      30.14F
SPRINGFIELD      N/A     65  63  93 N15       30.17R
$$


USA.gov is the U.S. government's official web portal to all federal, state and local government web resources and services.